Dunkirk, NY

3:06 AM EDT on June 23, 2017 (GMT -0400)
Chautauqua County-Dunkirk

Weather History for KDKK - April, 2014

Change the Weather History Date:

Thursday, April 10, 2014

  Actual Average Record
Temperature  
Mean Temperature 54 °F -  
Max Temperature 70 °F 53 °F 80 °F (2011)
Min Temperature 39 °F 32 °F 18 °F (1974)
Degree Days  
Heating Degree Days 11    
Growing Degree Days 4 (Base 50)    
Moisture  
Dew Point 33 °F    
Average Humidity 49    
Maximum Humidity 93    
Minimum Humidity 24    
Precipitation  
Precipitation 0.12 in - - ()
Sea Level Pressure  
Sea Level Pressure 29.88 in    
Wind  
Wind Speed 17 mph (SSW)    
Max Wind Speed 33 mph    
Max Gust Speed 45 mph    
Visibility 9 miles    
Events Rain    
Averages and records for this station are not official NWS values.
T = Trace of Precipitation, MM = Missing Value Source: NWS Daily Summary

Daily Weather History Graph

Daily Weather History Graph

Search for Another Location

Airport or City:

Trip Planner

Search our weather history database for the weather conditions in past years. The results will help you decide how hot, cold, wet, or windy it might be!

Date:

Astronomy

Apr. 10, 2014 Rise Set
Actual Time 6:44 AM EDT 7:53 PM EDT
Civil Twilight 6:15 AM EDT 8:22 PM EDT
Nautical Twilight 5:40 AM EDT 8:56 PM EDT
Astronomical Twilight 5:04 AM EDT 9:33 PM EDT
Moon 3:30 PM EDT (4/10) 4:11 AM EDT (4/10)
Length of Visible Light 14h 06m
Length of Day
13h 09m
Waxing Gibbous, 79% of the Moon is Illuminated
Apr 10
Waxing Gibbous
Apr 15
Full
Apr 22
Last Quarter
Apr 29
New
May 6
First Quarter

Hourly Weather History & Observations

Time (EDT) Temp. Windchill Dew Point Humidity Pressure Visibility Wind Dir Wind Speed Gust Speed Precip Events Conditions
12:53 AM 39.9 °F 33.4 °F 23.0 °F 51% 30.00 in 10.0 mi SSW 10.4 mph 23.0 mph N/A   Clear
1:53 AM 41.0 °F 34.3 °F 24.1 °F 51% 29.99 in 10.0 mi SSW 11.5 mph 23.0 mph N/A   Clear
2:53 AM 42.1 °F 34.5 °F 25.0 °F 51% 29.98 in 10.0 mi SSW 15.0 mph 23.0 mph N/A   Clear
3:53 AM 43.0 °F 34.8 °F 26.1 °F 51% 29.98 in 10.0 mi South 18.4 mph 24.2 mph N/A   Clear
4:53 AM 44.1 °F 36.5 °F 27.0 °F 51% 29.97 in 10.0 mi SSW 17.3 mph - N/A   Clear
5:53 AM 43.0 °F 34.5 °F 27.0 °F 53% 29.96 in 10.0 mi SSW 19.6 mph - N/A   Clear
6:53 AM 45.0 °F 36.6 °F 27.0 °F 49% 29.97 in 10.0 mi SSW 21.9 mph 32.2 mph N/A   Clear
7:53 AM 46.0 °F 38.0 °F 28.0 °F 50% 29.98 in 10.0 mi SSW 21.9 mph 35.7 mph N/A   Clear
8:53 AM 48.0 °F - 28.0 °F 46% 29.96 in 10.0 mi SSW 18.4 mph 32.2 mph N/A   Mostly Cloudy
10:53 AM 59.0 °F - 32.0 °F 36% 29.91 in 10.0 mi SW 21.9 mph 39.1 mph N/A   Partly Cloudy
11:27 AM 60.1 °F - 32.0 °F 35% 29.90 in 2.0 mi SSW 21.9 mph 34.5 mph N/A   Haze
11:37 AM 60.1 °F - 33.1 °F 36% 29.89 in 10.0 mi South 21.9 mph 34.5 mph N/A   Partly Cloudy
11:53 AM 60.1 °F - 32.0 °F 35% 29.88 in 10.0 mi SSW 25.3 mph 36.8 mph N/A   Clear
12:53 PM 64.0 °F - 30.9 °F 29% 29.85 in 10.0 mi SSW 26.5 mph 38.0 mph N/A   Clear
1:53 PM 68.0 °F - 34.0 °F 28% 29.82 in 10.0 mi SSW 21.9 mph 35.7 mph 0.00 in   Clear
2:53 PM 68.0 °F - 33.1 °F 27% 29.78 in 10.0 mi SSW 26.5 mph 41.4 mph 0.00 in   Clear
3:53 PM 69.1 °F - 30.9 °F 24% 29.73 in 10.0 mi South 29.9 mph 39.1 mph N/A   Partly Cloudy
4:53 PM 68.0 °F - 30.0 °F 24% 29.70 in 10.0 mi South 25.3 mph 38.0 mph 0.00 in   Mostly Cloudy
5:53 PM 66.9 °F - 30.0 °F 25% 29.71 in 10.0 mi SSW 19.6 mph 35.7 mph 0.00 in   Mostly Cloudy
6:53 PM 66.9 °F - 30.0 °F 25% 29.72 in 10.0 mi South 24.2 mph 38.0 mph N/A   Mostly Cloudy
7:53 PM 66.9 °F - 30.9 °F 26% 29.76 in 10.0 mi SW 13.8 mph 39.1 mph 0.00 in   Overcast
8:53 PM 66.0 °F - 35.1 °F 32% 29.81 in 10.0 mi WSW 33.4 mph 44.9 mph 0.00 in Rain Light Rain
9:53 PM 52.0 °F - 43.0 °F 71% 29.85 in 10.0 mi SW 11.5 mph - 0.00 in   Overcast
10:53 PM 50.0 °F - 46.9 °F 89% 29.88 in 6.0 mi SW 9.2 mph - 0.02 in Rain Light Rain
11:10 PM 50.0 °F - 48.0 °F 93% 29.88 in 4.0 mi SW 8.1 mph - 0.03 in Rain Rain
11:32 PM 50.0 °F - 48.0 °F 93% 29.88 in 4.0 mi SW 8.1 mph - 0.06 in Rain Rain
11:49 PM 51.8 °F - 48.2 °F 88% 29.89 in 4.0 mi SW 5.8 mph - 0.09 in Rain Rain
11:53 PM 51.1 °F - 48.9 °F 92% 29.90 in 3.0 mi WSW 6.9 mph - 0.10 in Rain Rain